RH
31 34 33 38 42 44 43 43 48 49 50 51 47 46 48 51 51 48 50 46 42 43 44 50 49 52 56 54 58 58 58 58 58 61 62 62 62 63 68 77 76 79 83 85
27 35 36 30 36 40 41 46 48 48 47 48 48 45 46 47 49 51 52 50 47 48 49 51 51 52 53 53 54 54 52 55 55 57 58 62 61 63 63 64 67 73 83 77
24 34 35 27 36 41 43 47 50 48 45 46 46 46 44 44 44 47 51 52 51 50 54 55 56 52 53 52 49 51 54 54 56 57 57 60 60 60 61 65 65 62 66 71
17 30 29 26 33 41 42 45 48 48 47 50 43 43 41 40 42 44 46 49 53 55 52 56 57 54 56 54 51 53 52 53 50 51 54 54 60 67 69 63 65 69 72 66
15 20 25 30 34 39 44 45 47 47 46 42 46 43 38 34 39 40 44 49 53 56 54 55 55 59 60 55 52 54 57 51 51 56 56 58 64 68 66 67 62 67 75 75
11 19 26 27 35 37 37 44 45 44 42 44 43 38 37 35 34 37 39 46 49 50 53 53 53 60 58 57 55 59 57 53 50 55 54 62 66 63 60 57 54 68 77 80
8 14 19 24 32 33 35 42 45 49 46 42 37 36 37 34 32 33 39 43 45 48 50 52 51 55 58 60 59 63 61 58 52 58 58 63 65 55 48 39 47 55 62 69
12 11 15 17 24 30 31 39 37 51 47 42 39 39 37 32 34 35 38 42 45 45 46 49 49 54 57 60 57 59 60 60 57 57 57 64 60 44 41 35 36 45 55 60
15 14 16 15 16 24 32 35 36 39 35 36 34 36 33 33 36 35 37 39 43 44 48 52 55 56 58 58 58 60 59 56 56 51 55 52 42 36 32 33 34 35 40 47
14 14 16 17 19 23 29 35 38 38 40 39 32 34 34 36 37 36 36 37 38 43 50 52 55 58 60 56 55 52 52 52 48 50 43 35 30 29 30 31 33 37 42 39
10 9 13 15 16 24 29 27 33 33 32 30 29 28 33 32 34 35 36 38 34 41 45 46 45 50 49 52 50 48 52 50 46 40 34 28 26 27 28 30 32 34 32 29
9 9 13 13 12 21 31 27 33 37 34 33 30 26 26 31 31 32 35 39 37 40 42 42 44 47 46 49 51 46 43 39 37 33 23 22 24 24 25 25 23 25 25 26
9 8 12 13 14 15 19 26 33 34 31 31 29 26 29 29 30 32 34 37 40 39 41 43 47 46 45 47 48 48 43 33 30 24 23 21 21 23 26 28 32 33 32 33
11 9 10 13 13 14 18 21 26 34 33 28 29 27 29 32 32 32 33 35 38 41 39 43 47 46 46 47 50 46 38 33 31 29 27 27 31 35 42 41 40 41 38 37
11 12 12 12 11 14 20 21 27 30 29 29 28 25 28 30 33 32 34 36 36 41 42 41 43 45 49 53 50 40 36 35 35 33 37 39 40 44 46 50 48 43 42 40
13 15 14 13 12 13 15 22 28 31 31 28 27 25 21 27 27 30 32 33 39 43 42 43 43 46 52 57 44 37 36 38 37 36 40 40 44 49 52 52 50 44 40 42
18 16 16 18 16 14 14 15 17 23 24 23 24 23 26 26 27 31 32 34 37 39 41 45 46 49 54 49 40 38 40 41 37 39 41 45 52 54 52 49 46 43 41 38
23 20 20 20 20 20 16 18 20 23 22 20 20 20 24 23 25 29 34 35 37 41 41 46 49 54 52 48 49 44 44 44 41 47 49 51 52 51 49 49 47 43 37 30
34 33 32 28 20 18 22 20 20 21 22 22 20 18 19 23 25 25 34 37 39 43 43 45 51 52 51 47 47 47 45 46 46 51 53 53 54 50 47 46 43 38 29 23
31 34 34 34 28 24 21 27 22 22 22 28 25 22 23 23 22 36 35 38 42 43 46 48 52 54 53 51 47 49 50 50 53 57 55 56 53 50 50 47 39 30 23 21
39 37 34 33 33 28 34 31 26 27 29 32 28 30 30 24 27 35 38 41 43 44 48 51 54 53 52 51 52 53 54 56 58 58 59 59 55 52 50 40 31 23 24 27
46 42 40 42 41 40 39 36 34 39 39 32 32 33 36 34 30 37 41 45 47 48 52 55 56 59 60 62 60 58 59 64 65 63 64 61 55 53 42 31 26 26 26 32
43 42 42 45 42 50 43 42 42 41 40 39 36 34 35 37 36 39 45 47 53 55 56 58 64 67 66 63 63 62 67 68 69 68 68 60 56 46 32 31 28 34 32 37
51 42 37 39 32 38 38 39 40 41 42 44 41 37 36 37 40 43 48 47 55 63 63 63 68 70 67 65 65 65 66 71 76 74 67 60 50 38 34 30 33 36 37 39
48 46 40 39 40 38 39 35 35 40 42 42 41 38 36 40 40 43 46 51 58 62 66 69 71 71 73 76 73 72 72 74 76 74 66 57 47 35 31 31 35 34 32 35
46 49 49 51 54 45 42 39 34 32 38 41 41 40 41 38 41 46 50 53 60 65 69 72 76 77 82 91 85 73 72 70 73 74 62 51 42 34 34 35 32 32 35 31